{"data":{"norad_id":48304,"epoch":"2026-09-20T00:07:48.859968Z","epoch_age_seconds":76377,"freshness":"FRESH","line1":"1 48304U 21036AE  26263.00542662  .00000399  00000+0  24618-4 0  9990","line2":"2 48304  53.1587 274.5936 0001360  78.1217 281.9937 15.31700235297837","mean_motion":15.31700235,"eccentricity":0.000136,"inclination_deg":53.1587,"raan_deg":274.5936,"arg_perigee_deg":78.1217,"mean_anomaly_deg":281.9937,"bstar":2.4618e-5,"rev_number":29783,"period_min":94.013173537184,"perigee_km":469.80784752689,"apogee_km":471.67074187904,"semimajor_km":6848.876294703,"source":"CELESTRAK","updated_at":"2026-09-20T09:00:38.932517Z"}}